Rhinelander, WI

8:33 PM CDT on June 24, 2017 (GMT -0500)
Rhinelander-Oneida County

Weather History for KRHI - May, 2013

Change the Weather History Date:

Wednesday, May 22, 2013

  Actual Average Record
Temperature  
Mean Temperature 48 °F 55 °F  
Max Temperature 54 °F 67 °F 90 °F (1975)
Min Temperature 42 °F 42 °F 26 °F (2006)
Degree Days  
Heating Degree Days 17 11  
Month to date heating degree days 307 302  
Since 1 July heating degree days 8918 8802  
Cooling Degree Days 0 0  
Month to date cooling degree days 9 0  
Year to date cooling degree days 9 1  
Moisture  
Dew Point 48 °F    
Average Humidity 93    
Maximum Humidity 100    
Minimum Humidity 86    
Precipitation  
Precipitation 0.18 in 0.12 in 2.16 in (1912)
Month to date precipitation 2.21 2.43  
Year to date precipitation 11.64 8.62  
Snow  
Snow 0.00 in - 0.00 in ()
Month to date snowfall 0.2  
Since 1 July snowfall 83.8  
Snow Depth 0.00 in    
Sea Level Pressure  
Sea Level Pressure 29.79 in    
Wind  
Wind Speed 6 mph (NNE)    
Max Wind Speed 14 mph    
Max Gust Speed 22 mph    
Visibility 5 miles    
Events Fog , Rain    
T = Trace of Precipitation, MM = Missing Value Source: NWS Daily Summary

Daily Weather History Graph

Daily Weather History Graph

Search for Another Location

Airport or City:

Trip Planner

Search our weather history database for the weather conditions in past years. The results will help you decide how hot, cold, wet, or windy it might be!

Date:

Astronomy

May. 22, 2013 Rise Set
Actual Time 5:19 AM CDT 8:30 PM CDT
Civil Twilight 4:43 AM CDT 9:06 PM CDT
Nautical Twilight 3:57 AM CDT 9:52 PM CDT
Astronomical Twilight 3:00 AM CDT 10:50 PM CDT
Moon 5:46 PM CDT (5/22) 3:32 AM CDT (5/22)
Length of Visible Light 16h 22m
Length of Day
15h 11m
Waxing Gibbous, 91% of the Moon is Illuminated
May 22
Waxing Gibbous
May 24
Full
May 31
Last Quarter
Jun 8
New
Jun 16
First Quarter

Hourly Weather History & Observations

Time (CDT) Temp. Windchill Dew Point Humidity Pressure Visibility Wind Dir Wind Speed Gust Speed Precip Events Conditions
12:53 AM 54.0 °F - 54.0 °F 100% 29.71 in 10.0 mi NE 6.9 mph - N/A   Overcast
1:41 AM 53.6 °F - 51.8 °F 94% 29.70 in 1.8 mi NNE 5.8 mph - N/A   Overcast
1:53 AM 52.0 °F - 52.0 °F 100% 29.71 in 2.5 mi NE 4.6 mph - N/A   Overcast
2:21 AM 51.8 °F - 51.8 °F 100% 29.72 in 0.8 mi Variable 3.5 mph - N/A   Mist
2:53 AM 50.0 °F - 50.0 °F 100% 29.72 in 0.5 mi NNE 3.5 mph - N/A Fog Fog
3:19 AM 50.0 °F - 50.0 °F 100% 29.72 in 0.2 mi North 4.6 mph - N/A Fog Fog
3:33 AM 48.2 °F - 48.2 °F 100% 29.73 in 0.5 mi North 3.5 mph - 0.01 in Fog Fog
3:53 AM 48.9 °F - 48.9 °F 100% 29.73 in 0.5 mi North 3.5 mph - 0.01 in Fog Fog
4:41 AM 48.2 °F - 46.4 °F 93% 29.73 in 1.5 mi NNE 4.6 mph - N/A   Overcast
4:53 AM 46.9 °F - 46.9 °F 100% 29.73 in 1.8 mi NNE 5.8 mph - N/A   Overcast
5:40 AM 46.4 °F 45.2 °F 46.4 °F 100% 29.73 in 0.5 mi NNE 3.5 mph - N/A Fog Fog
5:53 AM 46.9 °F - 46.9 °F 100% 29.75 in 0.5 mi Calm Calm - N/A Fog Fog
6:28 AM 46.4 °F 45.2 °F 46.4 °F 100% 29.74 in 1.0 mi ENE 3.5 mph - N/A   Overcast
6:53 AM 46.9 °F - 46.9 °F 100% 29.75 in 1.5 mi NE 4.6 mph - N/A   Overcast
7:03 AM 46.4 °F 45.2 °F 46.4 °F 100% 29.74 in 2.5 mi NNE 3.5 mph - N/A   Overcast
7:22 AM 48.2 °F - 46.4 °F 93% 29.74 in 3.0 mi NNE 4.6 mph - N/A   Overcast
7:53 AM 48.9 °F - 48.0 °F 97% 29.75 in 9.0 mi NNE 4.6 mph - N/A   Overcast
8:29 AM 48.2 °F - 48.2 °F 100% 29.74 in 1.8 mi NNE 4.6 mph - N/A   Overcast
8:43 AM 50.0 °F - 48.2 °F 94% 29.74 in 0.8 mi NE 4.6 mph - N/A   Overcast
8:53 AM 50.0 °F - 50.0 °F 100% 29.75 in 0.8 mi NE 3.5 mph - N/A   Overcast
9:24 AM 50.0 °F - 48.2 °F 94% 29.74 in 1.0 mi NNE 5.8 mph - N/A   Mist
9:49 AM 50.0 °F - 50.0 °F 100% 29.74 in 2.5 mi NNE 5.8 mph - N/A   Overcast
9:53 AM 50.0 °F - 50.0 °F 100% 29.75 in 3.0 mi NNE 5.8 mph - N/A   Overcast
10:01 AM 50.0 °F - 50.0 °F 100% 29.74 in 1.8 mi NNE 6.9 mph - N/A   Overcast
10:53 AM 51.1 °F - 50.0 °F 96% 29.77 in 1.2 mi Variable 4.6 mph - N/A   Overcast
11:07 AM 51.8 °F - 51.8 °F 100% 29.76 in 2.5 mi NNE 5.8 mph - N/A   Overcast
11:20 AM 51.8 °F - 51.8 °F 100% 29.75 in 3.0 mi NNE 6.9 mph - N/A   Overcast
11:53 AM 51.1 °F - 51.1 °F 100% 29.76 in 9.0 mi NNE 5.8 mph - N/A   Overcast
12:44 PM 51.8 °F - 50.0 °F 94% 29.76 in 10.0 mi NNE 6.9 mph - N/A   Overcast
12:53 PM 52.0 °F - 50.0 °F 93% 29.77 in 10.0 mi North 6.9 mph - N/A   Overcast
1:53 PM 52.0 °F - 48.9 °F 89% 29.78 in 10.0 mi NNE 9.2 mph - N/A   Overcast
2:53 PM 52.0 °F - 48.9 °F 89% 29.79 in 10.0 mi NE 5.8 mph - 0.00 in Rain Light Rain
3:46 PM 51.8 °F - 48.2 °F 88% 29.79 in 10.0 mi North 4.6 mph - 0.00 in Rain Light Rain
3:53 PM 51.1 °F - 48.0 °F 89% 29.81 in 10.0 mi NNE 10.4 mph 16.1 mph 0.01 in Rain Light Rain
4:53 PM 50.0 °F - 48.0 °F 93% 29.84 in 7.0 mi NE 5.8 mph - 0.03 in Rain Light Rain
5:53 PM 48.0 °F - 46.9 °F 96% 29.86 in 5.0 mi North 6.9 mph - 0.04 in Rain Light Rain
6:01 PM 48.2 °F - 46.4 °F 93% 29.83 in 5.0 mi NNE 5.8 mph - 0.00 in Rain Light Rain
6:30 PM 48.2 °F - 46.4 °F 93% 29.84 in 9.0 mi NNE 6.9 mph - 0.02 in Rain Light Rain
6:53 PM 48.0 °F - 45.0 °F 89% 29.87 in 10.0 mi NNE 8.1 mph 16.1 mph 0.02 in Rain Light Rain
7:53 PM 46.9 °F - 45.0 °F 93% 29.89 in 10.0 mi Variable 6.9 mph - 0.01 in Rain Light Rain
8:38 PM 48.2 °F - 46.4 °F 93% 29.88 in 4.0 mi NE 12.7 mph 19.6 mph 0.02 in Rain Light Rain
8:53 PM 48.0 °F - 46.0 °F 93% 29.91 in 7.0 mi NE 8.1 mph 18.4 mph 0.02 in Rain Light Rain
9:06 PM 48.2 °F - 46.4 °F 93% 29.89 in 10.0 mi NE 6.9 mph - 0.00 in   Overcast
9:53 PM 48.0 °F - 46.0 °F 93% 29.93 in 10.0 mi NE 9.2 mph - 0.01 in Rain Light Rain
10:17 PM 48.2 °F - 44.6 °F 87% 29.92 in 7.0 mi NNE 12.7 mph 18.4 mph 0.01 in Rain Light Rain
10:53 PM 46.0 °F 40.2 °F 43.0 °F 89% 29.96 in 10.0 mi NE 12.7 mph 21.9 mph 0.02 in Rain Light Rain
11:07 PM 46.4 °F 42.4 °F 42.8 °F 87% 29.94 in 10.0 mi NE 8.1 mph 19.6 mph 0.00 in Rain Light Rain
11:53 PM 45.0 °F 41.8 °F 42.1 °F 90% 29.99 in 10.0 mi NE 5.8 mph - 0.01 in Rain Light Rain